Location: Unspecified
(51.6250°N, 0.8230°E)
Time: 23:18:33
(UTC+00:00)

Intercosmos 25 - Pass Details

Date: 28 January 2021
Orbit: 438 x 2877 km, 82.6° (Epoch: 25 February)

Event Time Altitude Azimuth Distance (km) Brightness Sun altitude
Rises 17:35:00 0° 239° (WSW) 5,948 10.5 -8.8°
Reaches altitude 10° 17:40:20 10° 252° (WSW) 4,524 9.6 -9.6°
Maximum altitude 17:48:18 22° 299° (WNW) 2,924 7.6 -10.8°
Drops below altitude 10° 17:54:04 10° 348° (NNW) 3,135 7.1 -11.6°
Sets 17:57:00 0° 4° (N) 3,759 7.4 -12.1°
